Powrót do katalogu

SL-8 R/B

AktywnyLEO
NORAD 4589·ROCKET BODY·🇷🇺 Russia

Wystrzelony Oct 16, 1970 z Plesetsk Cosmodrome

Loading…

Następne Przeloty (najbliższe 24 godziny)

TLE

ŚwieżeSource: Space-Track

Epoka: Sep 14, 2026, 04:30 UTC

1 04589U 70086B   26257.18802059  .00000145  00000-0  50751-4 0  9994
2 04589  74.0606 188.6403 0021529 271.2909  88.5781 14.43385853933365

Śledź SL-8 R/B w czasie rzeczywistym z AllMySat

Download on the App Store